Big Delta, AK

9:27 AM AKDT on May 23, 2017 (GMT -0800)
Allen Army Air Field

Weather History for PABI - March, 2013

Change the Weather History Date:

Wednesday, March 27, 2013

  Actual Average Record
Temperature  
Mean Temperature -5 °F -  
Max Temperature 12 °F 24 °F 46 °F (2015)
Min Temperature -22 °F 3 °F -22 °F (2013)
Degree Days  
Heating Degree Days 70    
Moisture  
Dew Point -14 °F    
Average Humidity 62    
Maximum Humidity 82    
Minimum Humidity 32    
Precipitation  
Precipitation 0.00 in - - ()
Sea Level Pressure  
Sea Level Pressure 30.32 in    
Wind  
Wind Speed 6 mph (SE)    
Max Wind Speed 9 mph    
Max Gust Speed -    
Visibility 10 miles    
Events      
Averages and records for this station are not official NWS values.
T = Trace of Precipitation, MM = Missing Value Source: NWS Daily Summary

Daily Weather History Graph

Daily Weather History Graph

Search for Another Location

Airport or City:

Trip Planner

Search our weather history database for the weather conditions in past years. The results will help you decide how hot, cold, wet, or windy it might be!

Date:

Astronomy

Mar. 27, 2013 Rise Set
Actual Time 7:17 AM AKDT 8:20 PM AKDT
Civil Twilight 6:28 AM AKDT 9:09 PM AKDT
Nautical Twilight 5:27 AM AKDT 10:11 PM AKDT
Astronomical Twilight 4:13 AM AKDT 11:26 PM AKDT
Moon 9:49 PM AKDT (3/27) 6:54 AM AKDT (3/27)
Length of Visible Light 14h 40m
Length of Day
13h 03m
Full, 100% of the Moon is Illuminated
Mar 27
Full
Apr 2
Last Quarter
Apr 10
New
Apr 18
First Quarter
Apr 25
Full

Hourly Weather History & Observations

Time (AKDT) Temp. Windchill Dew Point Humidity Pressure Visibility Wind Dir Wind Speed Gust Speed Precip Events Conditions
12:53 AM -14.1 °F -28.3 °F -18.9 °F 79% 30.32 in 10.0 mi SW 5.8 mph - N/A   Clear
1:53 AM -16.1 °F -32.3 °F -20.9 °F 79% 30.33 in 10.0 mi SW 6.9 mph - N/A   Clear
2:53 AM -17.0 °F -36.1 °F -22.0 °F 78% 30.34 in 10.0 mi SW 9.2 mph - N/A   Clear
3:53 AM -18.0 °F -34.7 °F -23.1 °F 78% 30.34 in 10.0 mi SW 6.9 mph - N/A   Clear
4:53 AM -18.0 °F -36.1 °F -23.1 °F 78% 30.34 in 10.0 mi SW 8.1 mph - N/A   Clear
5:53 AM -17.0 °F -34.8 °F -22.0 °F 78% 30.35 in 10.0 mi SW 8.1 mph - N/A   Partly Cloudy
6:53 AM -20.9 °F - -26.0 °F 77% 30.36 in 10.0 mi Calm Calm - N/A   Scattered Clouds
7:53 AM -18.9 °F - -23.1 °F 81% 30.36 in 10.0 mi Calm Calm - N/A   Scattered Clouds
8:53 AM -16.1 °F -26.2 °F -20.0 °F 82% 30.37 in 10.0 mi SSE 3.5 mph - N/A   Scattered Clouds
9:53 AM -9.9 °F -19.2 °F -17.0 °F 71% 30.37 in 10.0 mi ESE 3.5 mph - N/A   Scattered Clouds
10:53 AM -5.1 °F -13.6 °F -13.0 °F 69% 30.36 in 10.0 mi ESE 3.5 mph - N/A   Partly Cloudy
11:53 AM -2.0 °F -13.9 °F -11.0 °F 66% 30.35 in 10.0 mi ESE 5.8 mph - N/A   Partly Cloudy
12:53 PM 1.0 °F -11.7 °F -11.0 °F 57% 30.35 in 10.0 mi East 6.9 mph - N/A   Partly Cloudy
1:53 PM 3.0 °F -9.3 °F -9.9 °F 55% 30.34 in 10.0 mi ESE 6.9 mph - N/A   Partly Cloudy
2:53 PM 6.1 °F -6.8 °F -9.0 °F 50% 30.32 in 10.0 mi East 8.1 mph - N/A   Partly Cloudy
3:53 PM 8.1 °F -3.2 °F -8.0 °F 48% 30.31 in 10.0 mi ESE 6.9 mph - N/A   Partly Cloudy
4:53 PM 10.9 °F 0.2 °F -7.1 °F 44% 30.29 in 10.0 mi East 6.9 mph - N/A   Partly Cloudy
5:53 PM 12.0 °F 0.5 °F -7.1 °F 42% 30.28 in 10.0 mi East 8.1 mph - N/A   Partly Cloudy
6:53 PM 12.0 °F 2.7 °F -7.1 °F 42% 30.28 in 10.0 mi SE 5.8 mph - N/A   Partly Cloudy
7:53 PM 12.0 °F 1.5 °F -7.1 °F 42% 30.27 in 10.0 mi ESE 6.9 mph - N/A   Partly Cloudy
8:53 PM 8.1 °F -2.0 °F -7.1 °F 50% 30.27 in 10.0 mi South 5.8 mph - N/A   Scattered Clouds
9:53 PM 6.1 °F -4.3 °F -8.0 °F 53% 30.26 in 10.0 mi SE 5.8 mph - N/A   Clear
10:53 PM -2.9 °F -17.7 °F -11.9 °F 65% 30.26 in 10.0 mi South 8.1 mph - N/A   Clear
11:53 PM -8.0 °F -16.9 °F -13.0 °F 79% 30.26 in 10.0 mi ESE 3.5 mph - N/A   Clear